Regional Weather Roundup
Issued by NWS Sterling, VA

Home | Current Version | Previous Version | Graphics & Text | Print | Product List | Glossary On
Versions: 1 2 3 4 5 6 7 8 9 10 11 12 13 14 15 16 17 18 19 20 21 22 23 24 25 26 27 28 29 30 31 32 33 34 35 36 37 38 39 40 41 42 43 44 45 46 47 48
000
ASUS41 KLWX 072210
RWRLWX

REGIONAL WEATHER ROUNDUP
NATIONAL WEATHER SERVICE BALTIMORE MD/WASHINGTON DC
500 PM EST SUN FEB 07 2016

Note: "FAIR" indicates few or no clouds below 12,000 feet
with no significant weather and/or obstructions to visibility.
 TC=TEMPERATURE CELSIUS

 * =Non NWS site. Station does not report precipitation (e.g. rain,
    snow, etc.), thunder, or fog.

DCZ001-MDZ009-015-VAZ040>042-051-053>054-072300-
WASHINGTON METRO

CITY           SKY/WX    TMP DP  RH WIND       PRES   REMARKS
WASHINGTON NAT CLOUDY    43  23  45 NE9       29.99F
DULLES         MOCLDY    43  23  45 NW8       29.98F
ANDREWS AFB    CLOUDY    41  21  44 NE7       29.97F
FT BELVOIR     FAIR      44  16  32 VRB1      29.98F
QUANTICO       FAIR      44  25  47 NE8       30.00F
COLLEGE PARK*  FAIR      45  18  33 NE5       29.98F
LEESBURG*      FAIR      45  27  49 N5        29.99F
MANASSAS*      CLEAR     45  23  42 VRB6      29.98F
GAITHERSBURG*  CLOUDY    43  19  39 N3        30.01F

$$

MDZ006>007-011-014-072300-
BALTIMORE METRO

CITY           SKY/WX    TMP DP  RH WIND       PRES   REMARKS
BWI AIRPORT    CLOUDY    43  19  38 NE8       29.98F
MD SCIENCE CTR   N/A     44  21  40 MISG      29.98F
MARTIN STATE   CLOUDY    45  27  49 N5        30.00F
ANNAPOLIS      CLOUDY    41  25  53 NE5       29.98F
FORT MEADE*    CLOUDY    41  21  45 CALM      30.01F

$$

MDZ012-015-019>023-072300-
MARYLAND EASTERN SHORE

CITY           SKY/WX    TMP DP  RH WIND       PRES   REMARKS
OCEAN CITY     CLOUDY    40  32  73 NE14G24   29.95F
SALISBURY      CLOUDY    40  26  57 N9        29.95F
BAY BRIDGE AP*   N/A     41  27  56 CALM      29.99F
CAMBRIDGE*     CLOUDY    41  25  52 NE6       29.97F
EASTON*        CLOUDY    41  28  60 NE7       30.02F

$$

MDZ017>025-072300-
SOUTHERN MARYLAND

CITY           SKY/WX    TMP DP  RH WIND       PRES   REMARKS
PATUXENT RIVER CLOUDY    40  30  67 N10       29.96F
ST INIGOES     CLOUDY    41  29  62 VRB6      29.95F
LEONARDTOWN*   CLOUDY    39  28  65 N3        29.99S

$$

MDZ003>005-072300-
NORTH CENTRAL MARYLAND

CITY           SKY/WX    TMP DP  RH WIND       PRES   REMARKS
FREDERICK*     CLEAR     43  28  56 VRB5      30.02F
HAGERSTOWN APT PTCLDY    42  22  44 NW3       29.97F
WESTMINSTER*   CLOUDY    43  28  56 NE5       29.97F

$$

MDZ501>502-072300-
WESTERN MARYLAND

CITY           SKY/WX    TMP DP  RH WIND       PRES   REMARKS
OAKLAND*       CLEAR     36  21  55 CALM      29.90F
CUMBERLAND*    CLEAR     46  25  42 S5        29.98F

$$

VAZ025>031-072300-
SHENANDOAH VALLEY

CITY           SKY/WX    TMP DP  RH WIND       PRES   REMARKS
WINCHESTER*    FAIR      43  25  49 E3        29.97F
FRONT ROYAL*   FAIR      43  25  49 E3        29.96S
LURAY*         FAIR      43  25  49 CALM      29.96S
NEW MARKET*    FAIR      43  25  48 NE6       29.94S
STAUNTON*      FAIR      45  27  49 NE5       29.96S
WAYNESBORO*    FAIR      40  23  51 CALM      29.93F

$$

WVZ021-048>050-054>055-072300-
EASTERN WEST VIRGINIA PANHANDLE

CITY           SKY/WX    TMP DP  RH WIND       PRES   REMARKS
MARTINSBURG    FAIR      42  21  43 NE3       29.97F
PETERSBURG*    FAIR      47  26  43 CALM      29.94F

$$

VAZ036>039-050-072300-
CENTRAL FOOTHILLS

CITY           SKY/WX    TMP DP  RH WIND       PRES   REMARKS
CHARLOTTESVILL FAIR      45  23  42 NE7       29.95F
CULPEPER*      FAIR      43  22  43 CALM      29.99S
ORANGE*        FAIR      45  27  49 N5        29.98S
GORDONSVILLE*  FAIR      43  26  49 NE3       29.95F
WARRENTON*     FAIR      44  27  51 N5        29.97S

$$

VAZ055>057-072300-
NORTH AND CENTRAL PIEDMONT

CITY           SKY/WX    TMP DP  RH WIND       PRES   REMARKS
FREDERICKSBRG* FAIR      43  21  41 N7        29.96F
STAFFORD*      FAIR      43  18  37 NE6       30.01F

$$

NCZ024-NYZ072-PAZ021-071-VAZ022-071-072300-
OTHER REGIONAL OBSERVATIONS

CITY           SKY/WX    TMP DP  RH WIND       PRES   REMARKS
NEW YORK CITY  MOCLDY    43  21  41 E6        30.05F
PHILADELPHIA   MOCLDY    43  22  43 E7        30.00F
PITTSBURGH     PTCLDY    50  20  30 SW9       29.91F
ROANOKE        CLOUDY    46  24  42 E7        29.94F
RICHMOND       CLOUDY    42  24  49 N8        29.95F
RALEIGH        CLOUDY    44  21  40 NE10G22   29.89F

$$

ANZ530>537-072300-
MARINE OBSERVATIONS

STATION/POSITION TIME  TEMP    WIND        PRES
                       AIR SEA DIR/SP/G
                 (UTC) (F)     (DEG/KT/KT) (MB)
THOMAS PT LIGHT  NOT AVBL
BALT KEY BRIDGE  2100   43      30/  6/  6 1016.5F
COVE POINT       2100   38      10/ 13/ 17 1015.9F
LEWISETTA        2100   42 42   20/  7/ 11 1014.9F
SOLOMONS ISLAND  2100   40 41  360/ 11/ 14   N/A

$$




USA.gov is the U.S. government's official web portal to all federal, state and local government web resources and services.